Weather in Bol'shiye Ozerki

Russia / Tula Oblast     53°33′08″N   37°10′46″E
temp.,
°C
wind,
m/s
gust,
m/s
humid.,
%
clouds,
%
prec.,
mm/h
press.,
hPa
HPBL,
m
24 october, sun
sun2400:00+4wsw51173100 0.0 10141092
03:00+4wsw6137570 0.0 1014641
06:00+3wsw71380100 0.0 1014724
09:00+4w71189100 0.1 1015965
12:00+4wnw7108595 0.4 1017843
15:00+4wnw71080100 0.7 10191040
18:00+2nw7127092 0.1 1021851
21:00+1nnw612745 0.1 1023669
25 october, mon
mon2500:00−1nw511825 0.0 1026516
03:00−1nw49918 0.0 1028387
06:00−2nw48929 0.0 1029348
09:00−1nnw477860 0.0 1031379
12:00+2nw3455100 0.0 1032713
15:00+3wnw45516 0.0 1031827
18:000wsw346637 0.0 103151
21:00−1wsw37715 0.0 1031137
26 october, tue
tue2600:00−1sw49740 0.0 1031208
03:00−1wsw5117495 0.0 1031259
06:00−1wsw51273100 0.0 1030272
09:00+1sw5126680 0.0 1029333
12:00+5wsw71152100 0.0 1028521
15:00+6sw61254100 0.0 1026604
18:00+3sw6146496 0.0 1026352
21:00+3sw6156360 0.0 1025369
27 october, wed
wed2700:00+2sw6156766 0.0 1025345
03:00+1sw513705 0.0 1024301
06:00+1sw614725 0.0 1024294
09:00+2sw615670 0.0 1023393
12:00+7sw814560 0.0 1022652
15:00+8sw71356100 0.0 1020859
18:00+6sw71461100 0.0 1020699
21:00+6wsw71477100 0.0 1019741
28 october, thu
thu2800:00+5w61185100 0.2 1020602
03:00+5w41082100 0.2 1021461
06:00+5wsw4981100 0.0 1022305
09:00+6wsw487653 0.0 1022274
12:00+8sw7968100 0.0 1021717
15:00+9sw71267100 0.0 1019807
18:00+7sw81583100 0.8 1018680
21:00+7wsw71392100 2.9 1017727